Location: Doverdale
(52.2833°N, 2.2000°W)
Time: 02:28:23
(UTC+00:00)

Meteor 2-1 Rocket - Pass Details

Date: 29 October 2020
Orbit: 830 x 906 km, 81.3° (Epoch: 27 November)

Event Time Altitude Azimuth Distance (km) Brightness Sun altitude
Rises 19:03:55 0° 195° (SSW) 3,365 7.5 -21.8°
Reaches altitude 10° 19:06:18 10° 197° (SSW) 2,434 6.7 -22.1°
Maximum altitude 19:11:48 77° 284° (WNW) 860 4.3 -23.0°
Drops below altitude 10° 19:17:23 10° 11° (N) 2,465 6.6 -23.8°
Sets 19:19:50 0° 13° (NNE) 3,411 7.3 -24.2°
